| time (UTC) | temp C | wind direction | speed KPH | gust KPH | rain 1hr cm | rain 24hr cm | rain mn cm | humidity % | barometer mb |
| 20260503022400 | 15 | 0 | 0.0 | 0.0 | 0.41 | 2.51 | 0.00 | 58 | 1020.1 |
| 20260503021900 | 15 | 0 | 0.0 | 0.0 | 18.54 | 13.16 | 0.00 | 58 | 1020.1 |
| 20260503021400 | 15 | 0 | 0.0 | 0.0 | 1.91 | 2.51 | 0.00 | 58 | 1020.3 |
| 20260503020900 | 15 | 0 | 0.0 | 0.0 | 24.87 | 2.51 | 0.00 | 58 | 1020.2 |
| 20260503020400 | 15 | 0 | 0.0 | 0.0 | 19.28 | 2.51 | 0.00 | 58 | 1020.3 |
| 20260503015900 | 15 | 0 | 0.0 | 0.0 | 10.57 | 2.51 | 0.00 | 58 | 1020.2 |
| 20260503015400 | 15 | 0 | 0.0 | 0.0 | 19.23 | 2.51 | 0.00 | 58 | 1020.2 |
| 20260503014900 | 15 | 0 | 0.0 | 0.0 | 15.80 | 2.51 | 0.00 | 58 | 1020.3 |
| 20260503014400 | 15 | 0 | 0.0 | 0.0 | 15.75 | 2.51 | 0.00 | 58 | 1020.3 |
| 20260503013900 | 15 | 0 | 0.0 | 0.0 | 13.41 | 2.51 | 0.00 | 57 | 1020.3 |
| 20260503013400 | 15 | 0 | 0.0 | 0.0 | 21.44 | 2.51 | 0.00 | 57 | 1020.3 |
| 20260503012900 | 15 | 0 | 0.0 | 0.0 | 20.19 | 2.51 | 0.00 | 57 | 1020.3 |
| 20260503012400 | 15 | 0 | 0.0 | 0.0 | 16.15 | 21.92 | 0.00 | 57 | 1020.4 |
| 20260503011900 | 15 | 0 | 0.0 | 0.0 | 21.54 | 15.04 | 0.00 | 57 | 1020.3 |
| 20260503011400 | 15 | 0 | 0.0 | 0.0 | 20.19 | 2.51 | 0.00 | 56 | 1020.3 |
| 20260503010900 | 15 | 0 | 0.0 | 0.0 | 19.28 | 2.51 | 0.00 | 56 | 1020.4 |
| 20260503010400 | 15 | 0 | 0.0 | 0.0 | 20.52 | 2.51 | 0.00 | 56 | 1020.5 |
| 20260503005900 | 15 | 0 | 0.0 | 0.0 | 14.40 | 2.51 | 0.00 | 56 | 1020.5 |
| 20260503005400 | 15 | 0 | 0.0 | 0.0 | 18.34 | 2.51 | 0.00 | 56 | 1020.6 |
| 20260503004900 | 15 | 0 | 0.0 | 0.0 | 12.80 | 2.51 | 0.00 | 56 | 1020.7 |
| 20260503004400 | 15 | 0 | 0.0 | 0.0 | 12.22 | 2.51 | 0.00 | 56 | 1020.6 |
| 20260503003900 | 15 | 0 | 0.0 | 0.0 | 9.63 | 2.51 | 0.00 | 56 | 1020.5 |
| 20260503003400 | 16 | 0 | 0.0 | 0.0 | 13.11 | 2.51 | 0.00 | 55 | 1020.5 |
| 20260503002900 | 16 | 0 | 0.0 | 0.0 | 10.87 | 2.51 | 0.00 | 55 | 1020.6 |
| 20260503002400 | 16 | 0 | 0.0 | 0.0 | 10.01 | 21.62 | 0.00 | 55 | 1020.6 |
| 20260503001900 | 16 | 0 | 0.0 | 0.0 | 9.37 | 15.04 | 0.00 | 55 | 1020.6 |
| 20260503001400 | 16 | 0 | 0.0 | 0.0 | 14.86 | 2.51 | 0.00 | 55 | 1020.9 |
| 20260503000900 | 16 | 0 | 0.0 | 0.0 | 12.50 | 2.51 | 0.00 | 54 | 1020.9 |
| 20260503000400 | 16 | 0 | 0.0 | 0.0 | 13.46 | 2.51 | 0.00 | 54 | 1020.9 |
| 20260502235900 | 16 | 0 | 0.0 | 0.0 | 5.49 | 2.51 | 0.00 | 54 | 1020.9 |
| 20260502235400 | 16 | 0 | 0.0 | 0.0 | 15.85 | 2.51 | 0.00 | 54 | 1020.8 |
| 20260502234900 | 16 | 0 | 0.0 | 0.0 | 13.46 | 2.51 | 0.00 | 54 | 1020.9 |
| 20260502234400 | 16 | 0 | 0.0 | 0.0 | 13.41 | 2.51 | 0.00 | 54 | 1020.9 |
| 20260502233900 | 16 | 0 | 0.0 | 0.0 | 10.46 | 2.51 | 0.00 | 54 | 1020.8 |
| 20260502233400 | 16 | 0 | 0.0 | 0.0 | 14.45 | 2.51 | 0.00 | 54 | 1020.8 |
| 20260502232900 | 16 | 0 | 0.0 | 0.0 | 12.45 | 2.51 | 0.00 | 54 | 1020.9 |
| 20260502232400 | 16 | 0 | 0.0 | 0.0 | 12.12 | 2.51 | 0.00 | 54 | 1020.9 |
| 20260502231900 | 16 | 0 | 0.0 | 0.0 | 11.15 | 21.62 | 0.00 | 53 | 1020.9 |
| 20260502231400 | 16 | 0 | 0.0 | 0.0 | 12.65 | 2.51 | 0.00 | 53 | 1020.9 |
| 20260502230900 | 16 | 0 | 0.0 | 0.0 | 13.36 | 2.51 | 0.00 | 53 | 1021.0 |
| 20260502230400 | 16 | 0 | 0.0 | 0.0 | 13.74 | 2.51 | 0.00 | 53 | 1020.9 |
| 20260502225900 | 16 | 0 | 0.0 | 0.0 | 10.06 | 2.51 | 0.00 | 53 | 1020.9 |
| 20260502225400 | 17 | 0 | 0.0 | 0.0 | 13.94 | 2.51 | 0.00 | 53 | 1021.0 |
| 20260502224900 | 17 | 0 | 0.0 | 0.0 | 15.75 | 2.51 | 0.00 | 53 | 1021.0 |
| 20260502224400 | 17 | 0 | 0.0 | 0.0 | 15.34 | 2.51 | 0.00 | 53 | 1020.9 |
| 20260502223900 | 17 | 0 | 0.0 | 0.0 | 14.25 | 2.51 | 0.00 | 53 | 1021.0 |
| 20260502223400 | 17 | 0 | 0.0 | 0.0 | 21.08 | 2.51 | 0.00 | 52 | 1020.8 |
| 20260502222900 | 17 | 0 | 0.0 | 0.0 | 19.58 | 2.51 | 0.00 | 52 | 1020.8 |
| 20260502222400 | 17 | 0 | 0.0 | 0.0 | 22.23 | 1.91 | 0.00 | 52 | 1020.8 |
| 20260502221900 | 17 | 0 | 0.0 | 0.0 | 17.73 | 14.99 | 0.00 | 52 | 1020.6 |
| 20260502221400 | 17 | 0 | 0.0 | 0.0 | 22.28 | 2.51 | 0.00 | 52 | 1020.7 |
| 20260502220900 | 17 | 0 | 0.0 | 0.0 | 24.41 | 2.51 | 0.00 | 51 | 1020.6 |
| 20260502220400 | 17 | 0 | 0.0 | 0.0 | 23.93 | 2.51 | 0.00 | 51 | 1020.6 |
| 20260502215900 | 17 | 0 | 0.0 | 0.0 | 16.26 | 2.51 | 0.00 | 51 | 1020.8 |
| 20260502215400 | 17 | 0 | 0.0 | 0.0 | 0.86 | 2.51 | 0.00 | 51 | 1020.8 |
| 20260502214900 | 17 | 0 | 0.0 | 0.0 | 24.46 | 2.51 | 0.00 | 51 | 1020.6 |
| 20260502214400 | 17 | 0 | 0.0 | 0.0 | 19.68 | 2.51 | 0.00 | 51 | 1020.5 |
| 20260502213900 | 17 | 0 | 0.0 | 0.0 | 19.33 | 2.51 | 0.00 | 50 | 1020.6 |
| 20260502213400 | 18 | 0 | 0.0 | 0.0 | 22.58 | 2.51 | 0.00 | 50 | 1020.5 |
| 20260502212901 | 18 | 0 | 0.0 | 0.0 | 22.23 | 2.51 | 0.00 | 50 | 1020.5 |
| 20260502212400 | 18 | 0 | 0.0 | 0.0 | 21.77 | 2.51 | 0.00 | 50 | 1020.5 |
| 20260502211900 | 18 | 0 | 0.0 | 0.0 | 16.94 | 19.02 | 0.00 | 50 | 1020.3 |
| 20260502211400 | 18 | 0 | 0.0 | 0.0 | 19.38 | 2.51 | 0.00 | 50 | 1020.5 |
| 20260502210901 | 18 | 0 | 0.0 | 0.0 | 12.85 | 2.51 | 0.00 | 49 | 1020.5 |
| 20260502210400 | 18 | 0 | 0.0 | 0.0 | 12.70 | 2.51 | 0.00 | 49 | 1020.3 |
| 20260502205900 | 18 | 0 | 0.0 | 0.0 | 7.37 | 2.51 | 0.00 | 49 | 1020.5 |
| 20260502205401 | 18 | 0 | 0.0 | 0.0 | 12.06 | 2.51 | 0.00 | 49 | 1020.2 |
| 20260502204901 | 18 | 0 | 0.0 | 0.0 | 9.02 | 2.51 | 0.00 | 48 | 1020.3 |
| 20260502204401 | 18 | 0 | 0.0 | 0.0 | 9.42 | 2.51 | 0.00 | 48 | 1020.3 |
| 20260502203901 | 18 | 0 | 0.0 | 0.0 | 6.48 | 2.51 | 0.00 | 48 | 1020.2 |
| 20260502203401 | 18 | 0 | 0.0 | 0.0 | 5.49 | 2.51 | 0.00 | 48 | 1020.2 |
| 20260502202901 | 19 | 0 | 0.0 | 0.0 | 23.95 | 0.97 | 0.00 | 47 | 1020.2 |
| 20260502202401 | 19 | 0 | 0.0 | 0.0 | 1.04 | 23.67 | 0.00 | 47 | 1020.2 |
| 20260502201901 | 19 | 0 | 0.0 | 0.0 | 1.55 | 18.49 | 0.00 | 47 | 1020.1 |
| 20260502201401 | 19 | 0 | 0.0 | 0.0 | 0.84 | 2.51 | 0.00 | 47 | 1020.1 |
| 20260502200901 | 20 | 0 | 0.0 | 0.0 | 23.75 | 2.51 | 0.00 | 46 | 1019.8 |
| 20260502200401 | 20 | 0 | 0.0 | 0.0 | 21.01 | 2.51 | 0.00 | 46 | 1020.0 |
| 20260502195901 | 20 | 0 | 0.0 | 0.0 | 22.25 | 2.51 | 0.00 | 46 | 1019.9 |
| 20260502195401 | 20 | 0 | 0.0 | 0.0 | 22.20 | 2.51 | 0.00 | 45 | 1019.9 |
| 20260502194901 | 20 | 0 | 0.0 | 0.0 | 22.45 | 2.51 | 0.00 | 45 | 1019.8 |
| 20260502194401 | 20 | 0 | 0.0 | 0.0 | 18.82 | 2.51 | 0.00 | 45 | 1019.6 |
| 20260502193901 | 20 | 0 | 0.0 | 0.0 | 17.42 | 2.51 | 0.00 | 44 | 1019.6 |
| 20260502193401 | 21 | 0 | 0.0 | 0.0 | 17.68 | 2.51 | 0.00 | 44 | 1019.5 |
| 20260502192901 | 21 | 0 | 0.0 | 0.0 | 17.53 | 2.31 | 0.00 | 44 | 1019.5 |
| 20260502192401 | 21 | 0 | 0.0 | 0.0 | 13.34 | 19.58 | 0.00 | 44 | 1019.5 |
| 20260502191901 | 21 | 0 | 0.0 | 0.0 | 9.70 | 13.64 | 0.00 | 44 | 1019.3 |
| 20260502191401 | 21 | 0 | 0.0 | 0.0 | 15.04 | 2.51 | 0.00 | 43 | 1019.2 |
| 20260502190901 | 21 | 0 | 0.0 | 0.0 | 14.05 | 2.51 | 0.00 | 43 | 1019.2 |
| 20260502190401 | 22 | 0 | 0.0 | 0.0 | 16.81 | 2.51 | 0.00 | 43 | 1019.2 |
| 20260502185901 | 22 | 0 | 0.0 | 0.0 | 10.11 | 2.51 | 0.00 | 43 | 1019.1 |
| 20260502185401 | 22 | 0 | 0.0 | 0.0 | 19.02 | 2.51 | 0.00 | 43 | 1018.9 |
| 20260502184901 | 22 | 0 | 0.0 | 0.0 | 14.99 | 2.51 | 0.00 | 43 | 1018.9 |
| 20260502184401 | 22 | 0 | 0.0 | 0.0 | 15.67 | 2.51 | 0.00 | 42 | 1018.8 |
| 20260502183901 | 22 | 0 | 0.0 | 0.0 | 13.64 | 2.51 | 0.00 | 42 | 1018.7 |
| 20260502183401 | 22 | 0 | 0.0 | 0.0 | 14.83 | 1.22 | 0.00 | 43 | 1018.6 |
| 20260502182901 | 23 | 0 | 0.0 | 0.0 | 15.88 | 23.62 | 0.00 | 42 | 1018.7 |
| 20260502182401 | 23 | 0 | 0.0 | 0.0 | 14.88 | 21.56 | 0.00 | 42 | 1018.4 |
| 20260502181901 | 23 | 0 | 0.0 | 0.0 | 11.15 | 16.69 | 0.00 | 42 | 1018.4 |
| 20260502181401 | 23 | 0 | 0.0 | 0.0 | 10.24 | 2.51 | 0.00 | 42 | 1018.3 |
| 20260502180901 | 23 | 0 | 0.0 | 0.0 | 5.71 | 2.51 | 0.00 | 41 | 1018.3 |
| 20260502180401 | 23 | 0 | 0.0 | 0.0 | 6.02 | 2.51 | 0.00 | 41 | 1018.4 |
| 20260502170401 | 26 | 0 | 0.0 | 0.0 | 21.29 | 2.51 | 0.00 | 36 | 1018.2 |
| 20260502163901 | 26 | 0 | 0.0 | 0.0 | 21.39 | 21.23 | 0.00 | 34 | 1018.3 |
| 20260502163401 | 26 | 0 | 0.0 | 0.0 | 24.49 | 20.57 | 0.00 | 34 | 1018.3 |
| 20260502162901 | 26 | 0 | 0.0 | 0.0 | 22.63 | 18.03 | 0.00 | 36 | 1018.3 |
| 20260502162401 | 26 | 0 | 0.0 | 0.0 | 22.73 | 17.14 | 0.00 | 36 | 1018.4 |
| 20260502161901 | 26 | 0 | 0.0 | 0.0 | 21.08 | 14.50 | 0.00 | 36 | 1018.5 |
| 20260502161401 | 26 | 0 | 0.0 | 0.0 | 20.90 | 2.51 | 0.00 | 36 | 1018.4 |
| 20260502160901 | 26 | 0 | 0.0 | 0.0 | 20.60 | 2.51 | 0.00 | 36 | 1018.4 |
| 20260502160401 | 27 | 0 | 0.0 | 0.0 | 17.70 | 2.51 | 0.00 | 35 | 1018.6 |
| 20260502151901 | 26 | 0 | 0.0 | 0.0 | 12.67 | 13.94 | 0.00 | 38 | 1018.9 |
| 20260502151401 | 26 | 0 | 0.0 | 0.0 | 13.97 | 2.51 | 0.00 | 38 | 1018.7 |
| 20260502150901 | 26 | 0 | 0.0 | 0.0 | 13.77 | 2.46 | 0.00 | 38 | 1018.8 |
| 20260502150401 | 26 | 0 | 0.0 | 0.0 | 13.97 | 1.55 | 0.00 | 38 | 1018.7 |
| 20260502130401 | 25 | 0 | 0.0 | 0.0 | 17.45 | 2.51 | 0.00 | 36 | 1020.5 |
| 20260502123401 | 25 | 0 | 0.0 | 0.0 | 14.96 | 19.68 | 0.00 | 37 | 1020.8 |
| 20260502122901 | 25 | 0 | 0.0 | 0.0 | 14.71 | 18.77 | 0.00 | 37 | 1021.1 |
| 20260502122401 | 25 | 0 | 0.0 | 0.0 | 11.86 | 15.75 | 0.00 | 37 | 1021.2 |
| 20260502121901 | 25 | 0 | 0.0 | 0.0 | 11.18 | 14.05 | 0.00 | 37 | 1021.1 |
| 20260502121401 | 25 | 0 | 0.0 | 0.0 | 11.33 | 2.41 | 0.00 | 37 | 1021.2 |
| 20260502120901 | 25 | 0 | 0.0 | 0.0 | 9.68 | 0.76 | 0.00 | 37 | 1021.4 |
| 20260502120401 | 25 | 0 | 0.0 | 0.0 | 8.64 | 23.06 | 0.00 | 37 | 1021.4 |
| 20260502115901 | 25 | 0 | 0.0 | 0.0 | 7.70 | 21.41 | 0.00 | 37 | 1021.4 |
| 20260502115401 | 25 | 0 | 0.0 | 0.0 | 10.19 | 21.29 | 0.00 | 37 | 1021.7 |
| 20260502114901 | 25 | 0 | 0.0 | 0.0 | 9.93 | 20.98 | 0.00 | 37 | 1021.6 |
| 20260502114401 | 25 | 0 | 0.0 | 0.0 | 8.59 | 19.08 | 0.00 | 37 | 1021.6 |
| 20260502113901 | 25 | 0 | 0.0 | 0.0 | 8.23 | 17.93 | 0.00 | 37 | 1021.7 |
| 20260502113401 | 25 | 0 | 0.0 | 0.0 | 9.47 | 17.58 | 0.00 | 37 | 1022.1 |
| 20260502112901 | 25 | 0 | 0.0 | 0.0 | 9.32 | 17.09 | 0.00 | 36 | 1022.0 |
| 20260502112401 | 25 | 0 | 0.0 | 0.0 | 9.14 | 16.69 | 0.00 | 37 | 1022.1 |
| 20260502111901 | 25 | 0 | 0.0 | 0.0 | 7.98 | 15.19 | 0.00 | 38 | 1022.2 |
| 20260502111401 | 25 | 0 | 0.0 | 0.0 | 10.19 | 4.29 | 0.00 | 37 | 1022.4 |
| 20260502110901 | 25 | 0 | 0.0 | 0.0 | 10.13 | 3.81 | 0.00 | 37 | 1022.3 |
| 20260502110401 | 25 | 0 | 0.0 | 0.0 | 9.83 | 3.10 | 0.00 | 36 | 1022.4 |
| 20260502105901 | 25 | 0 | 0.0 | 0.0 | 7.85 | 0.66 | 0.00 | 37 | 1022.5 |
| 20260502105401 | 25 | 0 | 0.0 | 0.0 | 10.13 | 0.51 | 0.00 | 37 | 1022.5 |
| 20260502104901 | 25 | 0 | 0.0 | 0.0 | 10.44 | 23.67 | 0.00 | 37 | 1022.7 |
| 20260502104401 | 25 | 0 | 0.0 | 0.0 | 10.29 | 23.32 | 0.00 | 37 | 1022.7 |
| 20260502103901 | 26 | 0 | 0.0 | 0.0 | 9.73 | 22.28 | 0.00 | 37 | 1022.8 |
| 20260502103401 | 26 | 0 | 0.0 | 0.0 | 10.77 | 20.98 | 0.00 | 38 | 1023.0 |
| 20260502102901 | 26 | 0 | 0.0 | 0.0 | 11.38 | 20.73 | 0.00 | 41 | 1022.9 |
| 20260502102401 | 26 | 0 | 0.0 | 0.0 | 12.83 | 20.42 | 0.00 | 42 | 1022.9 |
| 20260502101901 | 26 | 0 | 0.0 | 0.0 | 12.01 | 19.08 | 0.00 | 43 | 1023.1 |
| 20260502101401 | 25 | 0 | 0.0 | 0.0 | 12.83 | 2.06 | 0.00 | 44 | 1023.2 |
| 20260502100901 | 25 | 0 | 0.0 | 0.0 | 12.88 | 1.65 | 0.00 | 45 | 1023.2 |
| 20260502100401 | 25 | 0 | 0.0 | 0.0 | 14.12 | 1.19 | 0.00 | 45 | 1023.3 |
| 20260502091401 | 23 | 0 | 0.0 | 0.0 | 20.24 | 2.44 | 0.00 | 45 | 1024.2 |
| 20260502090901 | 22 | 0 | 0.0 | 0.0 | 19.79 | 2.44 | 0.00 | 46 | 1024.4 |
| 20260502090402 | 22 | 0 | 0.0 | 0.0 | 20.19 | 2.44 | 0.00 | 46 | 1024.6 |
| 20260502071402 | 16 | 0 | 0.0 | 0.0 | 15.98 | 2.44 | 0.00 | 62 | 1026.5 |
| 20260502070902 | 16 | 0 | 0.0 | 0.0 | 11.73 | 2.44 | 0.00 | 62 | 1026.7 |
| 20260502070402 | 16 | 0 | 0.0 | 0.0 | 13.64 | 2.44 | 0.00 | 62 | 1026.7 |
| 20260502065902 | 16 | 0 | 0.0 | 0.0 | 8.94 | 2.44 | 0.00 | 62 | 1026.6 |
| 20260502065402 | 16 | 0 | 0.0 | 0.0 | 15.47 | 2.44 | 0.00 | 62 | 1026.8 |
| 20260502064902 | 16 | 0 | 0.0 | 0.0 | 15.72 | 2.44 | 0.00 | 62 | 1026.9 |
| 20260502064402 | 15 | 0 | 0.0 | 0.0 | 15.19 | 2.44 | 0.00 | 62 | 1027.1 |
| 20260502063902 | 15 | 0 | 0.0 | 0.0 | 13.23 | 2.44 | 0.00 | 63 | 1027.0 |
| 20260502063402 | 15 | 0 | 0.0 | 0.0 | 18.21 | 2.44 | 0.00 | 63 | 1027.0 |
| 20260502062902 | 15 | 0 | 0.0 | 0.0 | 14.63 | 4.70 | 0.00 | 63 | 1027.0 |
| 20260502062402 | 15 | 0 | 0.0 | 0.0 | 14.73 | 1.55 | 0.00 | 64 | 1027.1 |
| 20260502061902 | 14 | 0 | 0.0 | 0.0 | 10.95 | 21.46 | 0.00 | 64 | 1027.0 |
| 20260502061402 | 14 | 0 | 0.0 | 0.0 | 16.23 | 2.44 | 0.00 | 63 | 1027.1 |
| 20260502060902 | 13 | 0 | 0.0 | 0.0 | 13.13 | 2.44 | 0.00 | 62 | 1027.1 |
| 20260502060402 | 13 | 0 | 0.0 | 0.0 | 16.23 | 2.44 | 0.00 | 63 | 1027.1 |
| 20260502055902 | 13 | 0 | 0.0 | 0.0 | 10.34 | 2.44 | 0.00 | 63 | 1027.2 |
| 20260502055402 | 13 | 0 | 0.0 | 0.0 | 19.96 | 2.44 | 0.00 | 63 | 1027.2 |
| 20260502054902 | 13 | 0 | 0.0 | 0.0 | 16.81 | 2.44 | 0.00 | 63 | 1027.3 |
| 20260502054402 | 13 | 0 | 0.0 | 0.0 | 15.62 | 2.44 | 0.00 | 63 | 1027.3 |
| 20260502053902 | 12 | 0 | 0.0 | 0.0 | 18.31 | 2.44 | 0.00 | 64 | 1027.4 |
| 20260502053402 | 12 | 0 | 0.0 | 0.0 | 19.56 | 1.45 | 0.00 | 63 | 1027.4 |
| 20260502052902 | 12 | 0 | 0.0 | 0.0 | 16.97 | 3.05 | 0.00 | 63 | 1027.3 |
| 20260502052402 | 12 | 0 | 0.0 | 0.0 | 20.37 | 2.95 | 0.00 | 63 | 1027.3 |
| 20260502051902 | 12 | 0 | 0.0 | 0.0 | 19.61 | 21.87 | 0.00 | 63 | 1027.4 |
| 20260502051402 | 12 | 0 | 0.0 | 0.0 | 18.16 | 2.44 | 0.00 | 63 | 1027.4 |
| 20260502050902 | 12 | 0 | 0.0 | 0.0 | 18.62 | 2.44 | 0.00 | 63 | 1027.5 |
| 20260502050402 | 12 | 0 | 0.0 | 0.0 | 16.38 | 2.44 | 0.00 | 63 | 1027.4 |
| 20260502045902 | 12 | 0 | 0.0 | 0.0 | 10.85 | 2.44 | 0.00 | 63 | 1027.3 |
| 20260502045402 | 12 | 0 | 0.0 | 0.0 | 18.87 | 2.44 | 0.00 | 63 | 1027.3 |
| 20260502044902 | 12 | 0 | 0.0 | 0.0 | 17.07 | 2.44 | 0.00 | 63 | 1027.3 |
| 20260502044402 | 12 | 0 | 0.0 | 0.0 | 12.65 | 2.44 | 0.00 | 63 | 1027.3 |
| 20260502043902 | 12 | 0 | 0.0 | 0.0 | 11.73 | 0.05 | 0.00 | 63 | 1027.2 |
| 20260502043402 | 12 | 0 | 0.0 | 0.0 | 23.01 | 0.05 | 0.00 | 63 | 1027.3 |
| 20260502042902 | 12 | 0 | 0.0 | 0.0 | 18.82 | 0.71 | 0.00 | 63 | 1027.1 |
| 20260502042402 | 12 | 0 | 0.0 | 0.0 | 16.76 | 20.42 | 0.00 | 63 | 1027.2 |
| 20260502041902 | 12 | 0 | 0.0 | 0.0 | 15.42 | 17.88 | 0.00 | 63 | 1027.2 |
| 20260502041402 | 12 | 0 | 0.0 | 0.0 | 23.60 | 2.44 | 0.00 | 62 | 1027.0 |
| 20260502040902 | 12 | 0 | 0.0 | 0.0 | 21.67 | 2.44 | 0.00 | 62 | 1027.0 |
| 20260502040402 | 12 | 0 | 0.0 | 0.0 | 19.61 | 2.44 | 0.00 | 62 | 1027.2 |
| 20260502035902 | 12 | 0 | 0.0 | 0.0 | 10.01 | 2.44 | 0.00 | 62 | 1027.1 |
| 20260502035402 | 12 | 0 | 0.0 | 0.0 | 23.90 | 2.44 | 0.00 | 62 | 1027.0 |
| 20260502034902 | 12 | 0 | 0.0 | 0.0 | 21.67 | 2.44 | 0.00 | 62 | 1027.1 |
| 20260502034402 | 12 | 0 | 0.0 | 0.0 | 20.42 | 2.44 | 0.00 | 62 | 1027.0 |
| 20260502033902 | 12 | 0 | 0.0 | 0.0 | 16.23 | 2.44 | 0.00 | 62 | 1027.0 |
| 20260502033402 | 12 | 0 | 0.0 | 0.0 | 22.30 | 2.44 | 0.00 | 62 | 1026.9 |
| 20260502032902 | 12 | 0 | 0.0 | 0.0 | 21.36 | 0.46 | 0.00 | 62 | 1027.0 |
| 20260502032402 | 12 | 0 | 0.0 | 0.0 | 22.56 | 4.14 | 0.00 | 62 | 1026.8 |
| 20260502031902 | 12 | 0 | 0.0 | 0.0 | 14.83 | 20.22 | 0.00 | 62 | 1026.9 |
| 20260502031402 | 12 | 0 | 0.0 | 0.0 | 17.73 | 2.44 | 0.00 | 62 | 1026.8 |
| 20260502030902 | 12 | 0 | 0.0 | 0.0 | 22.10 | 2.44 | 0.00 | 61 | 1026.9 |
| 20260502030402 | 12 | 0 | 0.0 | 0.0 | 20.80 | 2.44 | 0.00 | 61 | 1026.9 |
| 20260502025902 | 12 | 0 | 0.0 | 0.0 | 20.07 | 2.44 | 0.00 | 61 | 1026.9 |
| 20260502025402 | 12 | 0 | 0.0 | 0.0 | 16.97 | 2.44 | 0.00 | 61 | 1027.0 |
| 20260502024902 | 12 | 0 | 0.0 | 0.0 | 14.43 | 2.44 | 0.00 | 61 | 1026.8 |
| 20260502024402 | 12 | 0 | 0.0 | 0.0 | 19.13 | 2.44 | 0.00 | 61 | 1027.0 |
| 20260502023902 | 12 | 0 | 0.0 | 0.0 | 16.13 | 2.44 | 0.00 | 61 | 1026.9 |
| 20260502023402 | 12 | 0 | 0.0 | 0.0 | 17.22 | 2.79 | 0.00 | 61 | 1026.9 |
| 20260502022902 | 12 | 0 | 0.0 | 0.0 | 14.99 | 0.56 | 0.00 | 61 | 1026.9 |